Hatteras, NC

1:29 PM EDT on June 23, 2017 (GMT -0400)
Mitchell

Weather History for KHSE - August, 2012

Change the Weather History Date:

Friday, August 17, 2012

  Actual Average Record
Temperature  
Mean Temperature 81 °F 79 °F  
Max Temperature 87 °F 84 °F 91 °F (1978)
Min Temperature 74 °F 73 °F 58 °F (1961)
Degree Days  
Heating Degree Days 0 0  
Month to date heating degree days 0 0  
Since 1 June heating degree days 0 3  
Since 1 July heating degree days 0 0  
Cooling Degree Days 16 14  
Month to date cooling degree days 266 238  
Year to date cooling degree days 1447 1126  
Since 1 June cooling degree days 1122 983  
Growing Degree Days 30 (Base 50)    
Moisture  
Dew Point 73 °F    
Average Humidity 76    
Maximum Humidity 87    
Minimum Humidity 65    
Precipitation  
Precipitation T in 0.23 in 4.44 in (1899)
Month to date precipitation 3.48 3.57  
Year to date precipitation 34.38 33.83  
Snow  
Snow 0.00 in - - ()
Month to date snowfall 0.0  
Since 1 July snowfall 0.0  
Snow Depth 0.00 in    
Sea Level Pressure  
Sea Level Pressure 29.93 in    
Wind  
Wind Speed 7 mph (SSW)    
Max Wind Speed 16 mph    
Max Gust Speed 24 mph    
Visibility 10 miles    
Events      
T = Trace of Precipitation, MM = Missing Value Source: NWS Daily Summary

Daily Weather History Graph

Daily Weather History Graph

Search for Another Location

Airport or City:

Trip Planner

Search our weather history database for the weather conditions in past years. The results will help you decide how hot, cold, wet, or windy it might be!

Date:

Astronomy

Aug. 17, 2012 Rise Set
Actual Time 6:24 AM EDT 7:48 PM EDT
Civil Twilight 5:57 AM EDT 8:14 PM EDT
Nautical Twilight 5:25 AM EDT 8:46 PM EDT
Astronomical Twilight 4:51 AM EDT 9:20 PM EDT
Moon 6:21 AM EDT (8/17) 7:33 PM EDT (8/17)
Length of Visible Light 14h 17m
Length of Day
13h 24m
New Moon, 0% of the Moon is Illuminated
Aug 17
New Moon
Aug 24
First Quarter
Aug 31
Full
Sep 8
Last Quarter
Sep 15
New

Hourly Weather History & Observations

Time (EDT) Temp. Heat Index Dew Point Humidity Pressure Visibility Wind Dir Wind Speed Gust Speed Precip Events Conditions
12:51 AM 77.0 °F - 70.0 °F 79% 30.00 in 9.0 mi SW 3.5 mph - N/A   Clear
1:51 AM 77.0 °F - 71.1 °F 82% 29.99 in 9.0 mi Calm Calm - N/A   Clear
2:51 AM 78.1 °F - 72.0 °F 81% 29.97 in 9.0 mi SW 4.6 mph - N/A   Clear
3:51 AM 77.0 °F - 70.0 °F 79% 29.95 in 10.0 mi Calm Calm - N/A   Clear
4:51 AM 78.1 °F - 72.0 °F 81% 29.94 in 10.0 mi SSW 3.5 mph - N/A   Clear
5:51 AM 73.9 °F - 70.0 °F 87% 29.94 in 8.0 mi Calm Calm - N/A   Clear
6:51 AM 79.0 °F - 73.0 °F 82% 29.94 in 10.0 mi South 5.8 mph - N/A   Clear
7:51 AM 80.1 °F 83.6 °F 71.1 °F 74% 29.96 in 10.0 mi South 5.8 mph - N/A   Clear
8:51 AM 82.0 °F 86.3 °F 71.1 °F 69% 29.96 in 10.0 mi South 5.8 mph - N/A   Clear
9:51 AM 82.9 °F 88.8 °F 73.0 °F 72% 29.96 in 10.0 mi SSW 8.1 mph - N/A   Clear
10:51 AM 84.0 °F 91.2 °F 73.9 °F 72% 29.96 in 10.0 mi SSW 6.9 mph - N/A   Scattered Clouds
11:51 AM 84.9 °F 92.1 °F 73.9 °F 69% 29.96 in 10.0 mi SW 8.1 mph - N/A   Partly Cloudy
12:51 PM 86.0 °F 93.8 °F 73.9 °F 67% 29.95 in 10.0 mi SW 8.1 mph - N/A   Clear
1:51 PM 86.0 °F 93.8 °F 73.9 °F 67% 29.93 in 10.0 mi SSW 8.1 mph - N/A   Scattered Clouds
2:05 PM 86.0 °F 95.1 °F 75.2 °F 70% 29.93 in 10.0 mi SSW 6.9 mph - N/A   Mostly Cloudy
2:42 PM 86.0 °F 93.4 °F 73.4 °F 66% 29.92 in 10.0 mi SSW 10.4 mph - N/A   Scattered Clouds
2:51 PM 87.1 °F 96.3 °F 75.0 °F 67% 29.92 in 10.0 mi SW 11.5 mph - N/A   Partly Cloudy
3:51 PM 81.0 °F 84.4 °F 70.0 °F 69% 29.90 in 10.0 mi SSW 5.8 mph - 0.00 in   Overcast
4:51 PM 82.9 °F 89.4 °F 73.9 °F 74% 29.88 in 10.0 mi SSW 8.1 mph - N/A   Mostly Cloudy
5:51 PM 84.0 °F 91.2 °F 73.9 °F 72% 29.87 in 10.0 mi SSW 10.4 mph - N/A   Clear
6:51 PM 82.0 °F 87.4 °F 73.0 °F 74% 29.86 in 10.0 mi SSW 10.4 mph - N/A   Partly Cloudy
7:51 PM 82.0 °F 87.4 °F 73.0 °F 74% 29.88 in 10.0 mi SW 8.1 mph - N/A   Partly Cloudy
8:51 PM 82.0 °F 87.9 °F 73.9 °F 76% 29.89 in 10.0 mi SSW 8.1 mph - N/A   Clear
9:51 PM 81.0 °F 86.2 °F 73.9 °F 79% 29.89 in 10.0 mi SW 10.4 mph - N/A   Clear
10:51 PM 81.0 °F 86.7 °F 75.0 °F 82% 29.90 in 10.0 mi SW 9.2 mph - N/A   Clear
11:51 PM 81.0 °F 86.7 °F 75.0 °F 82% 29.88 in 10.0 mi SW 9.2 mph - N/A   Clear